Weather History for South Bend, IN

Change the Weather History Date:

Thursday, December 15, 2011

  Actual Average Record
Temperature  
Mean Temperature 46 °F 29 °F  
Max Temperature 57 °F 35 °F 62 °F (1971)
Min Temperature 35 °F 22 °F -12 °F (1901)
Degree Days  
Heating Degree Days 19 36  
Month to date heating degree days 451 509  
Since 1 July heating degree days 1574 1778  
Cooling Degree Days 0 0  
Month to date cooling degree days 0 0  
Year to date cooling degree days 969 773  
Moisture  
Dew Point 40 °F    
Average Humidity 76    
Maximum Humidity 93    
Minimum Humidity 59    
Precipitation  
Precipitation 0.09 in 0.08 in 1.36 in (1987)
Month to date precipitation 1.93 1.32  
Year to date precipitation 45.79 36.71  
Snow  
Snow 0.00 in 0.70 in 4.00 in (1946)
Month to date snowfall 2.9 7.3  
Since 1 July snowfall 2.9 12.5  
Snow Depth 0.00 in    
Sea Level Pressure  
Sea Level Pressure 29.84 in    
Wind  
Wind Speed 18 mph (WSW)    
Max Wind Speed 31 mph    
Max Gust Speed 38 mph    
Visibility 9 miles    
Events Rain    
T = Trace of Precipitation, MM = Missing Value Source: NWS Daily Summary

Daily Weather History Graph

Daily Weather History Graph

Search for Another Location

Airport:

Trip Planner

Search our weather history database for the weather conditions in past years. The results will help you decide how hot, cold, wet, or windy it might be!

Date:

Astronomy

Dec. 15, 2011 Rise Set
Actual Time 8:05 AM EST 5:15 PM EST
Civil Twilight 7:33 AM EST 5:47 PM EST
Nautical Twilight 6:58 AM EST 6:22 PM EST
Astronomical Twilight 6:24 AM EST 6:55 PM EST
Moon 10:45 PM EST (12/15) 11:17 AM EST (12/15)
Length of Visible Light 10h 13m
Length of Day
9h 10m
Waning Gibbous, 75% of the Moon is Illuminated
Dec 15
Waning Gibbous
Dec 17
Last Quarter
Dec 24
New
Jan 1
First Quarter
Jan 9
Full

Hourly Weather History & Observations

Time (EST) Temp. Windchill Dew Point Humidity Pressure Visibility Wind Dir Wind Speed Gust Speed Precip Events Conditions
12:54 AM 55.0 °F - 53.1 °F 93% 29.75 in 4.0 mi SSW 17.3 mph 24.2 mph 0.01 in Rain Light Rain
1:54 AM 55.9 °F - 53.1 °F 90% 29.73 in 4.0 mi SSW 18.4 mph 31.1 mph 0.02 in Rain Light Rain
2:16 AM 55.4 °F - 53.6 °F 94% 29.70 in 2.5 mi SSW 16.1 mph 25.3 mph 0.01 in Rain Rain
2:25 AM 55.4 °F - 53.6 °F 94% 29.70 in 5.0 mi SSW 16.1 mph 25.3 mph 0.02 in Rain Light Rain
2:54 AM 55.9 °F - 53.1 °F 90% 29.70 in 6.0 mi SSW 17.3 mph 26.5 mph 0.03 in Rain Light Rain
3:54 AM 55.9 °F - 54.0 °F 93% 29.69 in 5.0 mi SW 19.6 mph 26.5 mph 0.02 in Rain Light Rain
4:54 AM 57.0 °F - 54.0 °F 89% 29.68 in 10.0 mi SW 16.1 mph - 0.00 in   Overcast
5:52 AM 57.2 °F - 53.6 °F 88% 29.67 in 10.0 mi SW 13.8 mph 21.9 mph 0.01 in   Overcast
5:54 AM 57.0 °F - 54.0 °F 89% 29.68 in 10.0 mi SW 15.0 mph 21.9 mph 0.01 in   Overcast
6:54 AM 55.4 °F - 51.8 °F 88% 29.68 in 10.0 mi WSW 13.8 mph - N/A   Mostly Cloudy
7:41 AM 55.4 °F - 51.8 °F 88% 29.68 in 10.0 mi WSW 11.5 mph 20.7 mph N/A   Overcast
7:54 AM 55.9 °F - 51.1 °F 84% 29.69 in 10.0 mi WSW 10.4 mph - 0.00 in Rain Light Rain
8:33 AM 53.6 °F - 48.2 °F 82% 29.71 in 10.0 mi West 19.6 mph 26.5 mph 0.00 in Rain Light Rain
8:54 AM 52.0 °F - 46.0 °F 80% 29.71 in 10.0 mi West 12.7 mph - 0.00 in Rain Light Rain
9:54 AM 48.9 °F - 44.1 °F 83% 29.75 in 10.0 mi WNW 15.0 mph 23.0 mph 0.00 in   Overcast
10:54 AM 46.9 °F - 39.0 °F 74% 29.79 in 10.0 mi West 20.7 mph 27.6 mph N/A   Overcast
11:54 AM 46.0 °F 38.3 °F 37.0 °F 71% 29.81 in 10.0 mi West 20.7 mph 28.8 mph N/A   Overcast
12:13 PM 46.4 °F 39.2 °F 37.4 °F 71% 29.81 in 10.0 mi West 18.4 mph - N/A   Overcast
12:54 PM 45.0 °F 37.1 °F 36.0 °F 71% 29.82 in 10.0 mi West 19.6 mph 26.5 mph N/A   Overcast
1:54 PM 44.1 °F 35.7 °F 35.1 °F 71% 29.84 in 10.0 mi West 20.7 mph 26.5 mph N/A   Overcast
2:54 PM 43.0 °F 34.2 °F 33.1 °F 68% 29.86 in 10.0 mi West 20.7 mph 31.1 mph N/A   Overcast
3:54 PM 41.0 °F 31.6 °F 30.0 °F 65% 29.89 in 10.0 mi West 20.7 mph 32.2 mph N/A   Overcast
4:29 PM 39.2 °F 28.7 °F 30.2 °F 70% 29.91 in 10.0 mi WSW 23.0 mph 34.5 mph N/A   Overcast
4:54 PM 39.0 °F 29.0 °F 30.0 °F 70% 29.95 in 10.0 mi West 20.7 mph 36.8 mph N/A   Overcast
5:54 PM 36.0 °F 23.9 °F 27.0 °F 70% 30.01 in 10.0 mi West 25.3 mph 33.4 mph N/A   Overcast
6:40 PM 35.6 °F 25.9 °F 24.8 °F 65% 30.03 in 10.0 mi West 16.1 mph 31.1 mph N/A   Overcast
6:54 PM 35.6 °F 25.2 °F 24.8 °F 65% 30.03 in 10.0 mi West 18.4 mph - N/A   Overcast
7:54 PM 36.0 °F 27.1 °F 24.1 °F 62% 30.08 in 10.0 mi West 13.8 mph 27.6 mph N/A   Overcast
8:54 PM 36.0 °F 26.3 °F 24.1 °F 62% 30.11 in 10.0 mi West 16.1 mph 25.3 mph N/A   Overcast
9:54 PM 36.0 °F 25.0 °F 23.0 °F 59% 30.14 in 10.0 mi West 20.7 mph 25.3 mph N/A   Overcast
10:54 PM 36.0 °F 25.6 °F 23.0 °F 59% 30.17 in 10.0 mi WNW 18.4 mph 27.6 mph N/A   Overcast
11:54 PM 36.0 °F 26.7 °F 23.0 °F 59% 30.19 in 10.0 mi WNW 15.0 mph - N/A   Overcast